Regional Weather Roundup
Issued by NWS Portland, ME

Home | Current Version | Previous Version | Text Only | Print | Product List | Glossary On
Versions: 1 2 3 4 5 6 7 8 9 10 11 12 13 14 15 16 17 18 19 20 21 22 23 24 25 26 27 28 29 30 31 32 33 34 35 36 37 38 39 40 41 42 43 44 45 46 47 48 49 50
000
ASUS41 KGYX 120210
RWRGYX
WEATHER ROUNDUP FOR MAINE AND NEW HAMPSHIRE
NATIONAL WEATHER SERVICE GRAY ME
900 PM EST THU FEB 11 2016

MEZ002-005-006-010-012-015-018-020-021-024-026-027-029-120300-
MAINE

CITY           SKY/WX    TMP DP  RH WIND       PRES   REMARKS
PORTLAND       CLEAR     13  -1  54 NW13      29.85R WCI  -2
SANFORD        CLEAR     12  -6  44 W15G23    29.86R WCI  -4
BAR HARBOR     CLEAR     16   9  73 NW7       29.74R
WISCASSET      CLEAR     13  -2  51 NW6       29.84R
ROCKLAND       CLOUDY    16   1  51 W9G17     29.78R
FRYEBURG       CLEAR      8  -9  45 W10G21    29.83R WCI  -6
LEWISTONAUBURN CLEAR     10  -6  48 NW10G17   29.82R WCI  -3
AUGUSTA        CLEAR      9  -5  53 W12G18    29.81R WCI  -6
WATERVILLE     CLEAR      8  -4  58 NW15      29.78R WCI  -9
BANGOR         CLEAR     13   3  64 NW14      29.78R WCI  -2
GREENVILLE       N/A      2  -5  72 W12G31    29.66R WCI -15
MILLINOCKET    MOCLDY    11  -3  53 NW17G30   29.75R WCI  -6
HOULTON        CLOUDY    13   4  67 NW10G21   29.68R WCI   0
PRESQUE ISLE   LGT SNOW  12   7  80 NW12      29.69R WCI  -2
FRENCHVILLE    CLOUDY     4  -3  73 NW14      29.64R WCI -14
CARIBOU        CLOUDY    10   4  76 NW12      29.66R HAZE    WCI  -5
$$

NHZ002-005-008-009-011-012-014-120300-
NEW HAMPSHIRE

CITY           SKY/WX    TMP DP  RH WIND       PRES   REMARKS
PORTSMOUTH     MOCLDY    13   2  62 W17G24    29.89R WCI  -4
ROCHESTER      CLEAR     11  -5  48 W14G24    29.87R WCI  -5
NASHUA         CLEAR     12   0  57 W17G25    29.94R WCI  -5
MANCHESTER     PTCLDY    13   0  56 W10       29.92R WCI   0
CONCORD        CLOUDY    10   3  73 NW10      29.92R WCI  -4
LACONIA        CLEAR      7  -8  51 W10       29.91R WCI  -8
PLYMOUTH       MOCLDY     6  -6  59 NW10G16   29.93R WCI  -9
BERLIN         CLOUDY     0 -11  59 VRB7      29.87R
WHITEFIELD     CLOUDY     1 -10  60 W8        29.91R
JAFFREY        MOCLDY     7  -4  60 VRB7G17   29.89R
KEENE          MOCLDY    10  -6  48 NW9G17    29.96R
LEBANON        MOCLDY     8  -3  61 N9        29.96R
MT WASHINGTON  BLWGSNOW -24 -24 100 W40G49      N/A  VSB 1/16WCI -62
$$

VTZ005-007-008-120300-
VERMONT

CITY           SKY/WX    TMP DP  RH WIND       PRES   REMARKS
ST JOHNSBURY     N/A      2 -10  57 MISG      29.95R
MONTPELIER     LGT SNOW   0  -5  79 NW9G21    29.96R
BURLINGTON     CLOUDY     3 -10  54 NW18G25   30.08R WCI -17
$$

MAZ007-012-024-CTZ003-RIZ002-NYZ038-NYZ072-120300-
SOUTHERN NEW ENGLAND AND NY

CITY           SKY/WX    TMP DP  RH WIND       PRES   REMARKS
BOSTON         CLEAR     14  -3  47 W23G35    29.95R WCI  -5
WORCESTER      CLEAR      8  -5  55 W23G32    29.89R WCI -13
NANTUCKET      PTCLDY    20   1  43 W23G41    29.95R WCI   3
PROVIDENCE     CLEAR     15  -3  44 W14G24    30.01R WCI   0
HARTFORD       PTCLDY    13  -3  49 NW14G25   30.03R WCI  -2
ALBANY         PTCLDY    10  -5  50 NW12G17   30.10R WCI  -5
NEW YORK CITY  PTCLDY    22  -2  35 W22G31    30.13R WCI   6
$$

ANZ081-ANZ082-ANZ150-NHZ014-MEZ023>029-120300-
COASTAL MARINE OBSERVATIONS

STATION/POSITION TIME  TEMP    WIND        PRES    WAVE
                       AIR SEA DIR/SP/G            HT/PER
                 (UTC) (F)     (DEG/KT/KT) (MB)    (FT/S)
MOUNT DESERT ROC 0200   22     320/ 30/ 35 1005.7R
MATINICUS ROCK   0200          310/ 28/ 31 1007.4R
ISLE OF SHOALS   0200   15     310/ 29/ 33 1010.9R
JEFFREYS LEDGE   0104      43                N/A     8/ 6
CASHES LEDGE BUO 0150   25 42  320/ 25/ 31 1007.4R   8/ 6
GEORGES BANK BUO 0150   32 45              1006.8R  15/ 9
$$

.............KEY..............
   WCI - WIND CHILL
   TC  - TEMPERATURE IN CELSIUS
   VSB - VISIBILITY IN MILES
   HX  - HEAT INDEX
   FAIR- INDICATES FEW OR NO CLOUDS BELOW 12,000 FT, WITH NO
         SIGNIFICANT WEATHER AND/OR OBSTRUCTIONS TO VISIBILITY.





USA.gov is the U.S. government's official web portal to all federal, state and local government web resources and services.